When you browse on this site, cookies collect data to enhance your experience and personalize the content and advertising you see.
Visit our Privacy Policy to learn more. By continuing to use the site, you agree to this use of cookies and data.
  • în România
  • Lista ţărilor
  • Pe 7 zile
  • Temperatura apei
  • Hartă satelitară
  • Meteo pe hartă
  • Widget-uri
  • user-avatar
    Intrare

    Meteo pe oră la Arneguy

    Astăzi, 25 Aprilie, Joi

    Timp Temperatura Precipitaţii Vânt Presiune Umiditate
    00:00 +9°C° 0.8 mm 3 m/s 692 mmHg 93%
    01:00 +8°C° 0.3 mm 3 m/s 692 mmHg 92%
    02:00 +8°C° 0.3 mm 3 m/s 692 mmHg 90%
    03:00 +7°C° 0.3 mm 3 m/s 693 mmHg 89%
    04:00 +7°C° 0 mm 3 m/s 693 mmHg 87%
    05:00 +5°C° 0 mm 3 m/s 693 mmHg 85%
    06:00 +5°C° 0 mm 3 m/s 694 mmHg 83%
    07:00 +7°C° 0 mm 4 m/s 694 mmHg 73%
    08:00 +8°C° 0 mm 5 m/s 695 mmHg 62%
    09:00 +10°C° 0 mm 6 m/s 696 mmHg 52%
    10:00 +10°C° 0.4 mm 6 m/s 696 mmHg 54%
    11:00 +11°C° 0.4 mm 6 m/s 696 mmHg 55%
    12:00 +11°C° 0.4 mm 6 m/s 696 mmHg 56%
    13:00 +12°C° 0.6 mm 5 m/s 696 mmHg 58%
    14:00 +12°C° 0.6 mm 5 m/s 696 mmHg 60%
    15:00 +10°C° 0.6 mm 5 m/s 696 mmHg 62%
    16:00 +11°C° 0.6 mm 4 m/s 696 mmHg 66%
    17:00 +10°C° 0.6 mm 4 m/s 697 mmHg 69%
    18:00 +9°C° 0.6 mm 3 m/s 697 mmHg 73%
    19:00 +8°C° 0.5 mm 3 m/s 697 mmHg 75%
    20:00 +7°C° 0.5 mm 3 m/s 698 mmHg 77%
    21:00 +5°C° 0.5 mm 3 m/s 699 mmHg 79%
    22:00 +5°C° 0.1 mm 3 m/s 699 mmHg 81%
    23:00 +5°C° 0.1 mm 2 m/s 700 mmHg 83%

    Mâine, 26 Aprilie, Vineri

    Timp Temperatura Precipitaţii Vânt Presiune Umiditate
    00:00 +5°C° 0.1 mm 2 m/s 700 mmHg 85%
    01:00 +4°C° 0 mm 2 m/s 701 mmHg 84%
    02:00 +4°C° 0 mm 2 m/s 701 mmHg 83%
    03:00 +4°C° 0 mm 2 m/s 702 mmHg 83%
    04:00 +4°C° 0.9 mm 2 m/s 702 mmHg 87%
    05:00 +4°C° 0.9 mm 2 m/s 703 mmHg 91%
    06:00 +4°C° 0.9 mm 2 m/s 703 mmHg 95%
    07:00 +5°C° 0.2 mm 2 m/s 704 mmHg 93%
    08:00 +5°C° 0.2 mm 3 m/s 705 mmHg 90%
    09:00 +7°C° 0.2 mm 3 m/s 706 mmHg 88%
    10:00 +8°C° 0.3 mm 3 m/s 706 mmHg 86%
    11:00 +8°C° 0.3 mm 3 m/s 707 mmHg 85%
    12:00 +8°C° 0.3 mm 3 m/s 707 mmHg 84%
    13:00 +8°C° 0.2 mm 3 m/s 707 mmHg 81%
    14:00 +9°C° 0.2 mm 3 m/s 707 mmHg 78%
    15:00 +8°C° 0.2 mm 4 m/s 708 mmHg 75%
    16:00 +9°C° 0.1 mm 3 m/s 708 mmHg 78%
    17:00 +8°C° 0.1 mm 2 m/s 708 mmHg 81%
    18:00 +7°C° 0.1 mm 2 m/s 708 mmHg 84%
    19:00 +6°C° 0 mm 2 m/s 708 mmHg 87%
    20:00 +6°C° 0 mm 1 m/s 709 mmHg 90%
    21:00 +6°C° 0 mm 1 m/s 709 mmHg 93%
    22:00 +5°C° 0 mm 1 m/s 709 mmHg 94%
    23:00 +5°C° 0 mm 1 m/s 709 mmHg 94%

    Poimâine, 27 Aprilie, Sâmbătă

    Timp Temperatura Precipitaţii Vânt Presiune Umiditate
    00:00 +4°C° 0 mm 1 m/s 709 mmHg 94%
    01:00 +4°C° 0 mm 1 m/s 709 mmHg 93%
    02:00 +4°C° 0 mm 1 m/s 709 mmHg 93%
    03:00 +4°C° 0 mm 1 m/s 709 mmHg 92%
    04:00 +5°C° 0 mm 1 m/s 709 mmHg 90%
    05:00 +5°C° 0 mm 1 m/s 709 mmHg 88%
    06:00 +6°C° 0 mm 1 m/s 709 mmHg 87%
    07:00 +7°C° 0 mm 1 m/s 709 mmHg 84%
    08:00 +8°C° 0 mm 1 m/s 710 mmHg 82%
    09:00 +8°C° 0 mm 2 m/s 710 mmHg 80%
    10:00 +9°C° 0 mm 2 m/s 710 mmHg 77%
    11:00 +10°C° 0 mm 3 m/s 710 mmHg 74%
    12:00 +11°C° 0 mm 3 m/s 710 mmHg 71%
    13:00 +10°C° 0.1 mm 3 m/s 710 mmHg 77%
    14:00 +9°C° 0.1 mm 3 m/s 710 mmHg 82%
    15:00 +9°C° 0.1 mm 2 m/s 709 mmHg 88%
    16:00 +8°C° 0.1 mm 2 m/s 710 mmHg 87%
    17:00 +8°C° 0.1 mm 2 m/s 710 mmHg 87%
    18:00 +8°C° 0.1 mm 2 m/s 710 mmHg 86%
    19:00 +7°C° 0 mm 2 m/s 710 mmHg 89%
    20:00 +5°C° 0 mm 2 m/s 710 mmHg 93%
    21:00 +5°C° 0 mm 1 m/s 711 mmHg 96%
    22:00 +5°C° 0 mm 1 m/s 711 mmHg 96%
    23:00 +4°C° 0 mm 1 m/s 710 mmHg 96%

    28 Aprilie, Duminică

    Timp Temperatura Precipitaţii Vânt Presiune Umiditate
    00:00 +4°C° 0 mm 1 m/s 710 mmHg 95%
    01:00 +4°C° 0 mm 1 m/s 710 mmHg 95%
    02:00 +3°C° 0 mm 1 m/s 709 mmHg 94%
    03:00 +3°C° 0 mm 1 m/s 709 mmHg 94%
    04:00 +3°C° 0 mm 1 m/s 709 mmHg 92%
    05:00 +3°C° 0 mm 1 m/s 709 mmHg 91%
    06:00 +3°C° 0 mm 2 m/s 709 mmHg 90%
    07:00 +5°C° 0 mm 2 m/s 709 mmHg 79%
    08:00 +7°C° 0 mm 2 m/s 709 mmHg 69%
    09:00 +9°C° 0 mm 3 m/s 709 mmHg 58%
    10:00 +10°C° 0 mm 3 m/s 709 mmHg 55%
    11:00 +11°C° 0 mm 3 m/s 708 mmHg 51%
    12:00 +12°C° 0 mm 3 m/s 708 mmHg 48%
    13:00 +12°C° 0 mm 3 m/s 708 mmHg 49%
    14:00 +13°C° 0 mm 3 m/s 707 mmHg 50%
    15:00 +13°C° 0 mm 3 m/s 707 mmHg 52%
    16:00 +12°C° 0 mm 3 m/s 706 mmHg 58%
    17:00 +11°C° 0 mm 3 m/s 706 mmHg 65%
    18:00 +9°C° 0 mm 2 m/s 706 mmHg 72%
    19:00 +8°C° 0 mm 2 m/s 706 mmHg 80%
    20:00 +6°C° 0 mm 2 m/s 706 mmHg 88%
    21:00 +5°C° 0 mm 1 m/s 706 mmHg 96%
    22:00 +5°C° 0 mm 1 m/s 705 mmHg 95%
    23:00 +4°C° 0 mm 1 m/s 705 mmHg 95%

    29 Aprilie, Luni

    Timp Temperatura Precipitaţii Vânt Presiune Umiditate
    00:00 +4°C° 0 mm 1 m/s 705 mmHg 95%
    01:00 +4°C° 0 mm 1 m/s 705 mmHg 94%
    02:00 +3°C° 0 mm 1 m/s 704 mmHg 93%
    03:00 +3°C° 0 mm 1 m/s 704 mmHg 92%
    04:00 +4°C° 0 mm 1 m/s 704 mmHg 89%
    05:00 +4°C° 0 mm 1 m/s 704 mmHg 85%
    06:00 +4°C° 0 mm 1 m/s 704 mmHg 82%
    07:00 +8°C° 0 mm 1 m/s 704 mmHg 71%
    08:00 +11°C° 0 mm 1 m/s 704 mmHg 61%
    09:00 +14°C° 0 mm 1 m/s 705 mmHg 50%
    10:00 +15°C° 0 mm 1 m/s 704 mmHg 48%
    11:00 +16°C° 0 mm 2 m/s 704 mmHg 46%
    12:00 +18°C° 0 mm 2 m/s 704 mmHg 44%
    13:00 +17°C° 0 mm 2 m/s 703 mmHg 46%
    14:00 +17°C° 0 mm 2 m/s 703 mmHg 48%
    15:00 +17°C° 0 mm 2 m/s 702 mmHg 51%
    16:00 +16°C° 0 mm 2 m/s 702 mmHg 58%
    17:00 +15°C° 0 mm 2 m/s 702 mmHg 66%
    18:00 +14°C° 0 mm 2 m/s 701 mmHg 73%
    19:00 +12°C° 0 mm 1 m/s 701 mmHg 80%
    20:00 +10°C° 0 mm 1 m/s 701 mmHg 87%
    21:00 +8°C° 0 mm 1 m/s 701 mmHg 94%
    22:00 +8°C° 0 mm 1 m/s 701 mmHg 93%
    23:00 +8°C° 0 mm 1 m/s 701 mmHg 93%

    30 Aprilie, Marţi

    Timp Temperatura Precipitaţii Vânt Presiune Umiditate
    00:00 +8°C° 0 mm 1 m/s 701 mmHg 92%
    01:00 +8°C° 0 mm 1 m/s 700 mmHg 91%
    02:00 +8°C° 0 mm 1 m/s 700 mmHg 90%
    03:00 +7°C° 0 mm 1 m/s 700 mmHg 89%
    04:00 +8°C° 0 mm 1 m/s 700 mmHg 88%
    05:00 +8°C° 0 mm 1 m/s 700 mmHg 86%
    06:00 +8°C° 0 mm 2 m/s 700 mmHg 85%
    07:00 +12°C° 0 mm 1 m/s 700 mmHg 75%
    08:00 +15°C° 0 mm 1 m/s 700 mmHg 64%
    09:00 +19°C° 0 mm 1 m/s 701 mmHg 54%
    10:00 +21°C° 0 mm 1 m/s 701 mmHg 50%
    11:00 +22°C° 0 mm 1 m/s 701 mmHg 46%
    12:00 +24°C° 0 mm 1 m/s 700 mmHg 42%
    13:00 +24°C° 0 mm 1 m/s 700 mmHg 43%
    14:00 +24°C° 0 mm 1 m/s 700 mmHg 43%
    15:00 +23°C° 0 mm 1 m/s 699 mmHg 44%
    16:00 +22°C° 0 mm 1 m/s 699 mmHg 53%
    17:00 +20°C° 0 mm 1 m/s 699 mmHg 62%
    18:00 +19°C° 0 mm 1 m/s 699 mmHg 72%
    19:00 +16°C° 0.1 mm 1 m/s 699 mmHg 78%
    20:00 +14°C° 0.1 mm 1 m/s 699 mmHg 85%
    21:00 +12°C° 0.1 mm 1 m/s 699 mmHg 92%
    22:00 +11°C° 0 mm 1 m/s 699 mmHg 93%
    23:00 +11°C° 0 mm 1 m/s 699 mmHg 95%
    Arată mai mult